GFSNIL_sfc_temp_159.txt.gz
Temp
66 66 65 64 63 63 62 62 64 64 64 64 64 62 61 59 58 57 57 56 55 54
65 67 65 63 66 62 62 67 65 64 63 63 63 62 60 57 57 56 55 54 54 53
66 67 66 66 62 62 62 63 63 62 62 62 61 60 57 55 56 55 53 55 52 51
66 66 66 64 62 62 62 62 62 62 61 60 59 57 54 54 55 52 50 51 52 51
66 64 63 61 61 61 60 60 60 60 59 59 57 55 53 52 52 50 50 50 50 51
62 62 60 59 59 59 59 58 58 57 57 57 56 52 51 51 50 50 49 49 49 49
60 59 58 58 58 58 57 55 54 54 55 56 52 51 50 50 47 47 48 48 49 54
60 59 58 57 56 55 54 54 54 53 53 51 51 51 45 46 45 44 45 47 50 55
59 57 55 54 53 52 51 51 51 50 50 48 54 47 48 46 42 44 44 45 50 53
57 56 53 52 51 48 47 46 46 47 48 48 46 47 46 47 43 43 44 46 50 52
55 53 51 49 46 44 44 43 44 45 46 48 50 45 45 45 44 42 44 46 45 46
52 49 47 44 43 42 42 44 44 47 48 49 47 45 45 45 44 43 45 45 45 46
49 46 44 42 41 44 45 48 49 49 49 48 47 44 44 44 46 44 41 42 44 46
45 43 43 42 44 45 47 48 46 43 48 45 47 43 42 42 43 41 39 40 42 46

GFSNIL_sfc_temp_162.txt.gz
Temp
65 62 62 61 63 61 61 60 61 61 61 61 61 60 57 55 55 54 53 52 51 50
64 64 61 62 62 61 61 63 61 61 60 60 59 58 55 53 53 52 50 49 49 48
64 64 65 64 62 60 60 60 60 59 58 58 56 55 52 50 50 49 48 50 48 48
64 64 63 62 60 58 58 58 58 58 57 56 54 51 50 49 49 48 47 47 48 48
63 62 61 59 58 57 56 57 56 56 56 56 52 49 48 48 48 47 46 47 47 48
61 60 58 57 56 56 55 54 54 54 54 53 50 49 48 48 47 46 46 46 45 47
58 57 55 55 53 53 53 52 52 51 52 51 49 49 48 47 44 44 45 45 46 50
56 55 53 52 51 51 50 50 50 50 50 49 49 50 44 44 42 42 42 44 46 51
55 53 51 50 48 48 47 46 47 46 47 46 51 47 48 46 41 42 41 41 44 46
53 51 49 48 47 44 43 43 43 44 45 44 43 45 46 47 41 40 40 41 42 44
51 48 47 45 43 42 41 41 41 42 43 48 49 45 44 45 40 40 40 41 41 40
49 45 44 42 41 40 40 41 46 48 48 42 43 43 42 42 39 40 38 41 41 42
48 45 43 41 40 40 44 47 47 42 46 45 38 42 41 41 39 37 37 37 40 43
42 41 40 39 39 38 38 38 37 38 38 39 40 37 41 40 37 36 36 36 37 40

GFSNIL_sfc_temp_165.txt.gz
Temp
64 62 61 61 61 60 60 60 61 60 59 58 58 56 54 53 52 50 49 48 47 47
62 62 61 62 61 60 60 62 60 59 58 56 56 54 52 50 49 48 47 46 46 45
63 63 62 62 60 59 59 59 58 57 56 55 53 52 50 47 47 47 45 47 46 46
62 63 62 61 59 58 57 57 57 56 55 53 51 49 48 47 47 46 44 45 46 46
61 61 60 58 57 56 55 55 55 55 54 52 50 47 47 46 46 45 44 44 44 45
58 58 56 55 55 54 53 53 53 53 52 50 49 47 46 46 45 44 44 43 43 44
56 55 54 53 52 52 52 51 51 50 50 50 48 47 46 45 43 42 43 43 44 45
54 53 52 51 50 50 50 49 49 49 48 48 48 49 44 44 42 40 40 42 44 46
53 51 49 48 47 47 46 46 46 46 46 45 49 47 48 48 40 40 39 39 41 42
51 49 47 47 46 44 43 42 42 43 43 42 43 45 45 47 39 38 38 38 38 40
49 47 46 45 43 41 41 40 41 42 43 44 44 43 43 44 38 37 38 38 38 37
48 45 46 44 40 40 40 40 41 44 42 37 37 42 41 40 36 37 36 38 38 39
45 45 40 39 37 37 37 37 39 38 38 42 35 40 41 40 36 33 34 35 37 41
42 40 38 36 35 35 34 34 33 34 34 35 37 36 40 40 35 34 34 34 35 37

GFSNIL_sfc_temp_168.txt.gz
Temp
64 62 61 61 61 60 59 60 61 60 59 58 58 57 55 54 54 52 52 50 50 52
63 62 61 61 61 60 60 61 59 58 56 56 56 54 53 52 51 50 50 50 50 50
63 63 61 61 59 59 59 59 57 56 55 54 54 53 51 50 50 49 49 50 49 50
61 62 61 59 58 57 57 57 57 56 55 53 52 51 50 50 49 48 48 48 48 49
61 60 59 57 56 56 55 56 55 55 54 52 51 50 49 48 48 47 46 47 47 48
58 57 56 55 54 54 54 53 54 54 52 52 51 49 49 48 47 46 46 46 46 47
55 54 54 53 52 52 52 52 51 52 52 51 50 49 48 48 46 45 46 46 47 48
53 53 52 51 50 50 50 50 51 50 50 50 50 50 48 47 45 44 44 45 46 47
51 50 49 48 48 48 47 48 48 47 48 46 48 45 47 47 44 43 43 43 43 44
50 49 48 48 47 45 45 46 45 45 45 43 44 43 43 45 43 42 41 42 41 42
48 48 47 47 45 44 44 44 44 43 42 42 43 42 42 42 41 41 41 41 41 40
48 46 45 43 42 42 42 41 41 41 40 39 40 41 41 41 39 39 39 40 41 42
46 44 41 40 39 39 40 39 41 39 39 41 39 39 40 41 39 38 38 39 40 40
43 42 40 38 38 38 37 37 37 37 38 38 39 39 39 40 40 39 39 39 39 41

GFSNIL_sfc_temp_171.txt.gz
Temp
73 73 70 67 62 60 59 60 61 63 62 62 62 61 61 63 63 61 62 58 58 61
68 68 67 63 63 61 62 63 62 62 60 61 60 60 60 61 60 59 58 58 58 60
67 67 66 63 61 61 62 61 61 60 59 60 60 59 59 60 58 57 58 60 57 58
64 64 63 62 61 60 60 61 61 60 58 57 57 59 58 57 57 57 56 56 57 57
63 62 59 56 56 60 64 64 61 59 57 57 56 56 56 55 55 55 54 55 55 56
57 55 53 54 55 60 60 59 61 59 57 55 55 54 55 54 54 54 54 55 55 55
55 53 53 54 56 57 58 57 58 58 57 56 54 54 54 53 54 54 54 54 54 54
52 51 51 52 52 53 56 59 59 58 56 55 54 53 53 53 53 52 53 53 53 54
48 48 49 50 52 56 56 55 56 56 55 53 53 44 45 48 52 52 51 51 52 53
47 48 49 50 51 51 51 52 51 53 52 50 50 43 43 44 51 50 50 50 50 52
47 47 48 47 47 50 52 52 50 49 49 50 49 42 41 42 50 51 50 50 50 49
50 48 47 48 49 51 51 51 50 50 49 48 48 41 41 44 50 50 48 50 50 49
45 45 43 47 48 49 50 50 51 50 49 45 48 40 40 43 51 48 49 51 51 45
41 41 45 46 47 48 48 48 48 48 48 48 46 47 40 40 49 48 50 50 48 48